• In Netherlands
  • List of Countries
  • For 7 days
  • Water Temperature
  • Satellite Maps
  • Weather Map
  • Weather Widgets
  • user-avatar
    Login

    Hourly Weather San Luis

    Today, 20 October, Friday

    Time Temperature Precipitation Wind Pressure Humidity
    00:00 +19°C° 0 mm 9 mps 694 mmHg 21%
    01:00 +18°C° 0 mm 9 mps 694 mmHg 22%
    02:00 +18°C° 0 mm 9 mps 693 mmHg 24%
    03:00 +18°C° 0 mm 9 mps 693 mmHg 27%
    04:00 +17°C° 0 mm 8 mps 693 mmHg 30%
    05:00 +17°C° 0 mm 8 mps 693 mmHg 32%
    06:00 +18°C° 0 mm 8 mps 694 mmHg 33%
    07:00 +20°C° 0 mm 7 mps 694 mmHg 34%
    08:00 +21°C° 0 mm 7 mps 695 mmHg 35%
    09:00 +22°C° 0 mm 6 mps 695 mmHg 32%
    10:00 +25°C° 0 mm 5 mps 695 mmHg 30%
    11:00 +26°C° 0 mm 4 mps 695 mmHg 28%
    12:00 +27°C° 0 mm 5 mps 695 mmHg 26%
    13:00 +27°C° 0 mm 5 mps 695 mmHg 25%
    14:00 +28°C° 0 mm 6 mps 695 mmHg 24%
    15:00 +26°C° 0 mm 8 mps 695 mmHg 25%
    16:00 +23°C° 0 mm 9 mps 695 mmHg 27%
    17:00 +22°C° 0 mm 11 mps 695 mmHg 28%
    18:00 +19°C° 0 mm 10 mps 696 mmHg 31%
    19:00 +17°C° 0 mm 10 mps 697 mmHg 33%
    20:00 +16°C° 0 mm 9 mps 698 mmHg 35%
    21:00 +15°C° 0 mm 8 mps 698 mmHg 37%
    22:00 +13°C° 0 mm 8 mps 699 mmHg 38%
    23:00 +14°C° 0 mm 7 mps 700 mmHg 40%

    Tomorrow, 21 October, Saturday

    Time Temperature Precipitation Wind Pressure Humidity
    00:00 +13°C° 0 mm 6 mps 700 mmHg 40%
    01:00 +13°C° 0 mm 5 mps 700 mmHg 41%
    02:00 +13°C° 0 mm 5 mps 700 mmHg 42%
    03:00 +12°C° 0 mm 4 mps 700 mmHg 44%
    04:00 +12°C° 0 mm 4 mps 700 mmHg 46%
    05:00 +11°C° 0 mm 4 mps 701 mmHg 48%
    06:00 +12°C° 0 mm 4 mps 702 mmHg 45%
    07:00 +14°C° 0 mm 5 mps 702 mmHg 42%
    08:00 +15°C° 0 mm 5 mps 703 mmHg 38%
    09:00 +16°C° 0 mm 5 mps 704 mmHg 34%
    10:00 +19°C° 0 mm 5 mps 704 mmHg 29%
    11:00 +20°C° 0 mm 5 mps 704 mmHg 24%
    12:00 +21°C° 0 mm 5 mps 704 mmHg 23%
    13:00 +22°C° 0 mm 5 mps 704 mmHg 22%
    14:00 +22°C° 0 mm 5 mps 704 mmHg 21%
    15:00 +22°C° 0 mm 5 mps 703 mmHg 21%
    16:00 +22°C° 0 mm 6 mps 703 mmHg 22%
    17:00 +22°C° 0 mm 6 mps 703 mmHg 22%
    18:00 +20°C° 0 mm 6 mps 703 mmHg 24%
    19:00 +19°C° 0 mm 5 mps 704 mmHg 27%
    20:00 +16°C° 0 mm 5 mps 704 mmHg 29%
    21:00 +15°C° 0 mm 5 mps 705 mmHg 30%
    22:00 +15°C° 0 mm 5 mps 705 mmHg 31%
    23:00 +14°C° 0 mm 6 mps 705 mmHg 32%

    Day after tomorrow, 22 October, Sunday

    Time Temperature Precipitation Wind Pressure Humidity
    00:00 +13°C° 0 mm 6 mps 705 mmHg 35%
    01:00 +11°C° 0 mm 6 mps 705 mmHg 38%
    02:00 +11°C° 0 mm 6 mps 704 mmHg 41%
    03:00 +10°C° 0 mm 5 mps 704 mmHg 40%
    04:00 +10°C° 0 mm 5 mps 704 mmHg 40%
    05:00 +11°C° 0 mm 4 mps 704 mmHg 40%
    06:00 +13°C° 0 mm 5 mps 704 mmHg 36%
    07:00 +15°C° 0 mm 5 mps 704 mmHg 31%
    08:00 +19°C° 0 mm 5 mps 705 mmHg 27%
    09:00 +20°C° 0 mm 5 mps 704 mmHg 26%
    10:00 +22°C° 0 mm 6 mps 704 mmHg 25%
    11:00 +24°C° 0 mm 6 mps 704 mmHg 24%
    12:00 +26°C° 0 mm 7 mps 703 mmHg 23%
    13:00 +26°C° 0 mm 7 mps 702 mmHg 22%
    14:00 +27°C° 0 mm 8 mps 701 mmHg 21%
    15:00 +27°C° 0 mm 8 mps 700 mmHg 21%
    16:00 +27°C° 0 mm 8 mps 699 mmHg 22%
    17:00 +27°C° 0 mm 8 mps 698 mmHg 22%
    18:00 +24°C° 0 mm 8 mps 699 mmHg 24%
    19:00 +22°C° 0 mm 7 mps 699 mmHg 27%
    20:00 +21°C° 0 mm 7 mps 699 mmHg 30%
    21:00 +20°C° 0 mm 8 mps 699 mmHg 30%
    22:00 +19°C° 0 mm 9 mps 699 mmHg 31%
    23:00 +18°C° 0 mm 10 mps 699 mmHg 31%

    23 October, Monday

    Time Temperature Precipitation Wind Pressure Humidity
    00:00 +18°C° 0 mm 10 mps 698 mmHg 32%
    01:00 +17°C° 0 mm 10 mps 698 mmHg 33%
    02:00 +17°C° 0 mm 10 mps 697 mmHg 33%
    03:00 +16°C° 0 mm 10 mps 697 mmHg 35%
    04:00 +16°C° 0 mm 9 mps 697 mmHg 36%
    05:00 +16°C° 0 mm 9 mps 697 mmHg 38%
    06:00 +17°C° 0 mm 9 mps 697 mmHg 36%
    07:00 +18°C° 0 mm 9 mps 698 mmHg 34%
    08:00 +19°C° 0 mm 10 mps 698 mmHg 32%
    09:00 +22°C° 0 mm 9 mps 698 mmHg 30%
    10:00 +24°C° 0 mm 8 mps 698 mmHg 27%
    11:00 +26°C° 0 mm 8 mps 698 mmHg 24%
    12:00 +27°C° 0 mm 8 mps 697 mmHg 23%
    13:00 +28°C° 0 mm 7 mps 697 mmHg 22%
    14:00 +29°C° 0 mm 7 mps 696 mmHg 21%
    15:00 +29°C° 0 mm 7 mps 696 mmHg 22%
    16:00 +29°C° 0 mm 7 mps 695 mmHg 22%
    17:00 +28°C° 0 mm 6 mps 695 mmHg 23%
    18:00 +27°C° 0 mm 6 mps 695 mmHg 27%
    19:00 +24°C° 0 mm 6 mps 695 mmHg 30%
    20:00 +22°C° 0 mm 6 mps 695 mmHg 34%
    21:00 +21°C° 0 mm 7 mps 695 mmHg 35%
    22:00 +21°C° 0 mm 8 mps 696 mmHg 35%
    23:00 +21°C° 0 mm 9 mps 696 mmHg 36%

    24 October, Tuesday

    Time Temperature Precipitation Wind Pressure Humidity
    00:00 +20°C° 0 mm 8 mps 696 mmHg 36%
    01:00 +20°C° 0 mm 8 mps 695 mmHg 36%
    02:00 +20°C° 0 mm 7 mps 695 mmHg 37%
    03:00 +19°C° 0 mm 6 mps 695 mmHg 38%
    04:00 +17°C° 0 mm 5 mps 696 mmHg 39%
    05:00 +17°C° 0 mm 5 mps 696 mmHg 40%
    06:00 +19°C° 0 mm 4 mps 697 mmHg 37%
    07:00 +21°C° 0 mm 3 mps 698 mmHg 34%
    08:00 +22°C° 0 mm 3 mps 699 mmHg 31%
    09:00 +25°C° 0 mm 3 mps 699 mmHg 29%
    10:00 +26°C° 0 mm 3 mps 699 mmHg 27%
    11:00 +27°C° 0 mm 3 mps 700 mmHg 25%
    12:00 +28°C° 0 mm 4 mps 699 mmHg 24%
    13:00 +29°C° 0 mm 4 mps 699 mmHg 23%
    14:00 +29°C° 0 mm 4 mps 698 mmHg 22%
    15:00 +29°C° 0 mm 4 mps 698 mmHg 23%
    16:00 +29°C° 0 mm 5 mps 698 mmHg 24%
    17:00 +29°C° 0 mm 5 mps 697 mmHg 24%
    18:00 +27°C° 0 mm 5 mps 698 mmHg 29%
    19:00 +26°C° 0 mm 6 mps 698 mmHg 33%
    20:00 +23°C° 0 mm 6 mps 698 mmHg 38%
    21:00 +22°C° 0 mm 6 mps 698 mmHg 40%
    22:00 +22°C° 0 mm 5 mps 698 mmHg 43%
    23:00 +21°C° 0 mm 5 mps 698 mmHg 45%

    25 October, Wednesday

    Time Temperature Precipitation Wind Pressure Humidity
    00:00 +21°C° 0.2 mm 4 mps 698 mmHg 45%
    01:00 +21°C° 0.2 mm 4 mps 698 mmHg 46%
    02:00 +20°C° 0.2 mm 3 mps 697 mmHg 47%
    03:00 +20°C° 0.1 mm 3 mps 697 mmHg 48%
    04:00 +20°C° 0.1 mm 3 mps 697 mmHg 49%
    05:00 +19°C° 0.1 mm 3 mps 697 mmHg 51%
    06:00 +21°C° 0.1 mm 4 mps 698 mmHg 46%
    07:00 +23°C° 0.1 mm 5 mps 698 mmHg 42%
    08:00 +24°C° 0.1 mm 6 mps 699 mmHg 37%
    09:00 +27°C° 0 mm 6 mps 699 mmHg 34%
    10:00 +28°C° 0 mm 6 mps 698 mmHg 31%
    11:00 +29°C° 0 mm 6 mps 698 mmHg 28%
    12:00 +30°C° 0 mm 5 mps 698 mmHg 27%
    13:00 +30°C° 0 mm 5 mps 697 mmHg 27%
    14:00 +32°C° 0.1 mm 5 mps 696 mmHg 26%
    15:00 +30°C° 0 mm 5 mps 696 mmHg 26%
    16:00 +30°C° 0 mm 4 mps 695 mmHg 27%
    17:00 +30°C° 0 mm 4 mps 695 mmHg 28%
    18:00 +28°C° 0 mm 5 mps 695 mmHg 31%
    19:00 +27°C° 0 mm 5 mps 695 mmHg 35%
    20:00 +25°C° 0 mm 5 mps 695 mmHg 39%
    21:00 +25°C° 0 mm 5 mps 695 mmHg 40%
    22:00 +23°C° 0 mm 5 mps 695 mmHg 41%
    23:00 +22°C° 0 mm 5 mps 695 mmHg 42%
    Show more